QPF
0.07 0.06 0.04 0.02 0.02 0.02 0.01 0.01 0.01 0.01 0.01 0.01 0.01 0.01 0.01 0.01 0.01 0.01 0.01 0.01 0.01 0.01 0.01 0.01 0.00 0.01 0.01 0.01 0.01 0.01 0.01 0.01 0.01 0.00 0.00 0.00 0.00 0.01 0.02 0.03 0.03 0.03 0.03
0.07 0.07 0.04 0.03 0.02 0.01 0.01 0.01 0.01 0.01 0.01 0.01 0.01 0.01 0.01 0.01 0.01 0.01 0.01 0.01 0.00 0.00 0.00 0.00 0.00 0.00 0.01 0.01 0.01 0.01 0.01 0.01 0.01 0.01 0.00 0.00 0.00 0.01 0.01 0.02 0.03 0.04 0.04
0.05 0.06 0.04 0.03 0.02 0.01 0.01 0.01 0.00 0.00 0.00 0.00 0.00 0.00 0.00 0.00 0.00 0.00 0.00 0.00 0.00 0.00 0.00 0.00 0.00 0.00 0.00 0.00 0.00 0.01 0.01 0.01 0.01 0.01 0.01 0.01 0.01 0.01 0.01 0.01 0.02 0.02 0.04
0.04 0.05 0.04 0.02 0.01 0.01 0.01 0.01 0.00 0.00 0.00 0.00 0.00 0.00 0.00 0.00 0.00 0.00 0.00 0.00 0.01 0.01 0.00 0.00 0.00 0.00 0.00 0.00 0.00 0.00 0.00 0.01 0.01 0.01 0.02 0.01 0.01 0.01 0.02 0.02 0.01 0.01 0.02
0.03 0.03 0.03 0.02 0.02 0.01 0.01 0.01 0.00 0.00 0.00 0.00 0.00 0.01 0.01 0.00 0.00 0.00 0.00 0.01 0.01 0.01 0.01 0.01 0.00 0.01 0.01 0.00 0.00 0.01 0.01 0.01 0.01 0.01 0.02 0.02 0.01 0.01 0.02 0.02 0.02 0.02 0.02
0.02 0.02 0.02 0.01 0.01 0.01 0.01 0.01 0.00 0.00 0.00 0.00 0.01 0.01 0.01 0.01 0.01 0.01 0.01 0.01 0.01 0.01 0.01 0.01 0.01 0.01 0.01 0.01 0.01 0.01 0.01 0.01 0.01 0.01 0.02 0.02 0.01 0.01 0.01 0.02 0.02 0.02 0.02
0.02 0.01 0.01 0.01 0.01 0.01 0.00 0.00 0.00 0.00 0.00 0.01 0.01 0.01 0.01 0.01 0.01 0.01 0.01 0.01 0.01 0.01 0.01 0.01 0.01 0.01 0.01 0.01 0.01 0.01 0.01 0.01 0.01 0.01 0.02 0.01 0.01 0.01 0.01 0.02 0.02 0.02 0.01
0.01 0.01 0.01 0.01 0.01 0.00 0.00 0.00 0.00 0.00 0.00 0.01 0.01 0.01 0.01 0.01 0.01 0.01 0.02 0.01 0.01 0.01 0.01 0.01 0.01 0.01 0.01 0.01 0.01 0.01 0.00 0.00 0.01 0.01 0.01 0.01 0.01 0.01 0.01 0.02 0.02 0.02 0.02
0.01 0.01 0.01 0.01 0.00 0.00 0.00 0.00 0.00 0.00 0.01 0.01 0.01 0.01 0.01 0.01 0.01 0.01 0.01 0.01 0.01 0.01 0.01 0.01 0.01 0.01 0.01 0.01 0.01 0.01 0.01 0.01 0.01 0.01 0.01 0.01 0.01 0.01 0.01 0.02 0.02 0.02 0.03
0.01 0.01 0.01 0.01 0.01 0.01 0.00 0.00 0.00 0.01 0.01 0.01 0.01 0.01 0.01 0.01 0.01 0.01 0.01 0.01 0.01 0.01 0.01 0.01 0.01 0.01 0.01 0.01 0.01 0.01 0.01 0.01 0.01 0.01 0.01 0.01 0.01 0.01 0.01 0.02 0.02 0.02 0.03
0.01 0.01 0.01 0.01 0.01 0.01 0.01 0.01 0.01 0.01 0.01 0.01 0.01 0.01 0.01 0.01 0.01 0.01 0.01 0.02 0.01 0.01 0.01 0.01 0.01 0.01 0.02 0.02 0.01 0.01 0.01 0.01 0.01 0.01 0.01 0.01 0.01 0.02 0.02 0.02 0.02 0.02 0.02
0.02 0.02 0.01 0.01 0.01 0.01 0.01 0.01 0.01 0.01 0.01 0.01 0.01 0.01 0.01 0.01 0.01 0.01 0.01 0.01 0.02 0.01 0.01 0.01 0.01 0.01 0.01 0.01 0.01 0.01 0.01 0.02 0.02 0.02 0.02 0.02 0.02 0.02 0.02 0.02 0.02 0.03 0.02
0.02 0.02 0.02 0.01 0.02 0.01 0.01 0.01 0.01 0.01 0.01 0.01 0.01 0.01 0.00 0.00 0.00 0.01 0.01 0.01 0.01 0.01 0.01 0.01 0.01 0.01 0.01 0.01 0.01 0.01 0.01 0.01 0.02 0.02 0.02 0.02 0.02 0.02 0.02 0.02 0.03 0.03 0.03
0.01 0.01 0.02 0.02 0.02 0.02 0.02 0.01 0.01 0.01 0.01 0.01 0.01 0.01 0.01 0.01 0.01 0.01 0.01 0.01 0.01 0.01 0.01 0.01 0.01 0.01 0.01 0.01 0.01 0.01 0.01 0.01 0.01 0.02 0.01 0.01 0.01 0.01 0.02 0.02 0.03 0.03 0.04
0.01 0.01 0.01 0.02 0.02 0.02 0.02 0.01 0.01 0.01 0.01 0.01 0.01 0.01 0.01 0.01 0.01 0.02 0.02 0.01 0.01 0.01 0.01 0.02 0.01 0.01 0.02 0.02 0.01 0.01 0.01 0.01 0.01 0.01 0.01 0.01 0.01 0.02 0.02 0.02 0.02 0.03 0.03
0.01 0.01 0.01 0.01 0.01 0.01 0.01 0.01 0.01 0.01 0.01 0.01 0.01 0.01 0.01 0.01 0.01 0.02 0.02 0.02 0.02 0.01 0.01 0.02 0.01 0.01 0.01 0.01 0.02 0.01 0.01 0.01 0.01 0.01 0.01 0.01 0.01 0.02 0.02 0.03 0.03 0.03 0.03
0.01 0.01 0.01 0.01 0.01 0.01 0.01 0.01 0.01 0.01 0.01 0.01 0.01 0.01 0.01 0.02 0.02 0.01 0.01 0.02 0.02 0.02 0.02 0.02 0.01 0.01 0.01 0.01 0.02 0.02 0.01 0.01 0.01 0.01 0.01 0.01 0.02 0.02 0.02 0.03 0.03 0.03 0.03
0.01 0.01 0.01 0.01 0.01 0.01 0.01 0.01 0.01 0.01 0.01 0.01 0.01 0.01 0.01 0.01 0.01 0.01 0.02 0.02 0.02 0.02 0.02 0.02 0.01 0.01 0.01 0.01 0.02 0.02 0.01 0.01 0.01 0.01 0.01 0.02 0.02 0.02 0.02 0.03 0.03 0.02 0.02
0.01 0.01 0.01 0.01 0.01 0.01 0.00 0.01 0.01 0.01 0.01 0.01 0.01 0.01 0.01 0.01 0.01 0.01 0.02 0.02 0.02 0.02 0.01 0.01 0.01 0.01 0.01 0.02 0.02 0.02 0.02 0.02 0.01 0.01 0.02 0.02 0.02 0.02 0.02 0.02 0.02 0.03 0.02
0.01 0.01 0.01 0.01 0.01 0.01 0.01 0.01 0.01 0.01 0.01 0.01 0.01 0.01 0.01 0.01 0.01 0.01 0.02 0.02 0.02 0.01 0.01 0.02 0.01 0.01 0.02 0.02 0.02 0.02 0.02 0.02 0.02 0.02 0.02 0.02 0.02 0.02 0.02 0.02 0.03 0.03 0.02
0.01 0.01 0.01 0.01 0.01 0.01 0.01 0.01 0.01 0.01 0.01 0.01 0.01 0.01 0.01 0.02 0.02 0.01 0.01 0.02 0.02 0.02 0.02 0.02 0.02 0.02 0.02 0.02 0.02 0.02 0.02 0.02 0.02 0.02 0.02 0.02 0.02 0.02 0.02 0.02 0.03 0.03 0.03
0.01 0.01 0.01 0.01 0.01 0.01 0.01 0.01 0.01 0.01 0.01 0.01 0.01 0.01 0.01 0.01 0.02 0.02 0.01 0.01 0.01 0.01 0.01 0.01 0.02 0.02 0.02 0.02 0.02 0.02 0.02 0.02 0.02 0.02 0.02 0.02 0.02 0.02 0.02 0.02 0.02 0.03 0.03
0.01 0.01 0.01 0.01 0.01 0.01 0.01 0.01 0.01 0.01 0.01 0.01 0.01 0.01 0.01 0.01 0.01 0.02 0.02 0.01 0.01 0.01 0.01 0.01 0.02 0.02 0.02 0.02 0.02 0.02 0.02 0.02 0.02 0.02 0.02 0.02 0.02 0.02 0.02 0.02 0.02 0.03 0.03
0.01 0.01 0.01 0.01 0.01 0.01 0.01 0.01 0.02 0.02 0.02 0.02 0.02 0.02 0.01 0.01 0.02 0.02 0.02 0.02 0.01 0.01 0.01 0.01 0.01 0.02 0.02 0.02 0.02 0.02 0.02 0.02 0.02 0.02 0.02 0.02 0.02 0.02 0.02 0.02 0.03 0.03 0.03
0.01 0.01 0.01 0.01 0.01 0.01 0.01 0.01 0.01 0.02 0.02 0.02 0.02 0.02 0.02 0.02 0.02 0.02 0.02 0.01 0.01 0.01 0.01 0.01 0.01 0.01 0.02 0.02 0.02 0.02 0.02 0.02 0.02 0.02 0.02 0.02 0.02 0.02 0.02 0.02 0.03 0.03 0.03
0.01 0.01 0.01 0.01 0.01 0.01 0.01 0.01 0.02 0.02 0.02 0.02 0.02 0.02 0.02 0.02 0.02 0.02 0.02 0.02 0.01 0.01 0.01 0.01 0.01 0.02 0.02 0.02 0.02 0.02 0.02 0.02 0.02 0.02 0.02 0.02 0.02 0.02 0.02 0.03 0.03 0.03 0.03
MSLP
993.37 994.44 995.37 996.16 996.87 997.55 998.28 999.13 1000.12 1001.25 1002.47 1003.74 1004.99 1006.14 1007.17 1008.06 1008.82 1009.47 1010.06 1010.61 1011.16 1011.70 1012.24 1012.77 1013.27 1013.76 1014.24 1014.75 1015.33 1015.99 1016.76 1017.65 1018.61 1019.62 1020.59 1021.45 1022.16 1022.66 1022.93 1023.00 1022.89 1022.67 1022.38
992.77 993.84 994.77 995.57 996.27 996.95 997.67 998.48 999.43 1000.51 1001.69 1002.92 1004.14 1005.28 1006.33 1007.26 1008.07 1008.80 1009.47 1010.10 1010.72 1011.33 1011.93 1012.51 1013.07 1013.60 1014.12 1014.67 1015.28 1015.97 1016.77 1017.67 1018.65 1019.66 1020.63 1021.50 1022.19 1022.67 1022.93 1022.98 1022.85 1022.59 1022.27
992.13 993.17 994.09 994.90 995.62 996.31 997.04 997.86 998.79 999.85 1000.99 1002.19 1003.39 1004.53 1005.59 1006.56 1007.43 1008.24 1009.00 1009.73 1010.45 1011.16 1011.84 1012.50 1013.12 1013.70 1014.27 1014.86 1015.49 1016.19 1016.99 1017.88 1018.84 1019.82 1020.75 1021.58 1022.24 1022.70 1022.93 1022.96 1022.81 1022.54 1022.19
991.42 992.42 993.33 994.15 994.90 995.64 996.41 997.27 998.23 999.30 1000.45 1001.64 1002.83 1003.98 1005.06 1006.07 1007.01 1007.90 1008.75 1009.59 1010.41 1011.22 1012.00 1012.74 1013.43 1014.08 1014.69 1015.30 1015.94 1016.64 1017.41 1018.26 1019.17 1020.09 1020.96 1021.74 1022.35 1022.77 1022.98 1023.00 1022.84 1022.57 1022.22
990.70 991.64 992.54 993.38 994.18 994.99 995.85 996.78 997.81 998.93 1000.12 1001.33 1002.54 1003.71 1004.82 1005.87 1006.87 1007.83 1008.77 1009.71 1010.63 1011.53 1012.40 1013.22 1013.98 1014.68 1015.33 1015.95 1016.59 1017.26 1017.99 1018.78 1019.61 1020.45 1021.26 1021.96 1022.52 1022.90 1023.10 1023.11 1022.96 1022.71 1022.37
990.06 990.93 991.81 992.67 993.54 994.45 995.42 996.47 997.60 998.80 1000.06 1001.32 1002.56 1003.76 1004.90 1005.99 1007.03 1008.06 1009.07 1010.08 1011.08 1012.06 1013.00 1013.89 1014.70 1015.43 1016.10 1016.73 1017.35 1017.99 1018.66 1019.38 1020.13 1020.89 1021.61 1022.24 1022.75 1023.10 1023.28 1023.30 1023.18 1022.95 1022.65
989.63 990.42 991.27 992.15 993.10 994.11 995.21 996.39 997.64 998.95 1000.29 1001.61 1002.89 1004.12 1005.29 1006.40 1007.48 1008.54 1009.59 1010.65 1011.70 1012.74 1013.72 1014.65 1015.49 1016.25 1016.93 1017.56 1018.15 1018.75 1019.36 1020.01 1020.68 1021.36 1022.00 1022.57 1023.03 1023.35 1023.53 1023.57 1023.48 1023.28 1023.02
989.52 990.23 991.04 991.95 992.96 994.08 995.30 996.60 997.98 999.39 1000.80 1002.18 1003.50 1004.75 1005.92 1007.05 1008.13 1009.20 1010.27 1011.35 1012.42 1013.48 1014.49 1015.43 1016.30 1017.06 1017.75 1018.36 1018.93 1019.49 1020.06 1020.64 1021.24 1021.84 1022.41 1022.92 1023.34 1023.64 1023.82 1023.87 1023.82 1023.66 1023.43
989.80 990.43 991.21 992.13 993.19 994.39 995.71 997.11 998.58 1000.07 1001.54 1002.95 1004.29 1005.54 1006.71 1007.82 1008.89 1009.95 1011.01 1012.08 1013.15 1014.21 1015.23 1016.18 1017.04 1017.82 1018.50 1019.11 1019.67 1020.20 1020.72 1021.25 1021.79 1022.33 1022.84 1023.30 1023.68 1023.96 1024.13 1024.20 1024.16 1024.04 1023.85
990.48 991.03 991.77 992.69 993.78 995.03 996.41 997.88 999.40 1000.93 1002.42 1003.84 1005.17 1006.40 1007.54 1008.63 1009.67 1010.70 1011.74 1012.79 1013.85 1014.89 1015.90 1016.85 1017.72 1018.50 1019.19 1019.79 1020.35 1020.86 1021.36 1021.86 1022.35 1022.84 1023.29 1023.70 1024.04 1024.29 1024.45 1024.51 1024.48 1024.38 1024.21
991.51 992.00 992.69 993.59 994.68 995.94 997.33 998.82 1000.35 1001.87 1003.35 1004.75 1006.04 1007.24 1008.35 1009.39 1010.40 1011.40 1012.41 1013.44 1014.48 1015.51 1016.51 1017.46 1018.33 1019.11 1019.82 1020.44 1020.99 1021.51 1021.99 1022.47 1022.93 1023.36 1023.77 1024.13 1024.42 1024.63 1024.76 1024.80 1024.76 1024.65 1024.48
992.81 993.23 993.88 994.73 995.79 997.02 998.39 999.85 1001.34 1002.82 1004.25 1005.60 1006.85 1008.00 1009.07 1010.08 1011.06 1012.03 1013.02 1014.03 1015.05 1016.07 1017.07 1018.02 1018.90 1019.70 1020.42 1021.05 1021.62 1022.14 1022.63 1023.08 1023.51 1023.91 1024.27 1024.58 1024.81 1024.97 1025.05 1025.05 1024.98 1024.84 1024.64
994.26 994.63 995.21 996.01 997.01 998.19 999.49 1000.88 1002.31 1003.72 1005.09 1006.38 1007.57 1008.67 1009.71 1010.69 1011.65 1012.61 1013.59 1014.59 1015.61 1016.62 1017.62 1018.57 1019.46 1020.27 1021.00 1021.66 1022.24 1022.77 1023.25 1023.70 1024.10 1024.47 1024.78 1025.03 1025.21 1025.31 1025.32 1025.27 1025.14 1024.96 1024.72
995.78 996.09 996.61 997.34 998.26 999.35 1000.57 1001.87 1003.21 1004.54 1005.83 1007.06 1008.21 1009.28 1010.30 1011.27 1012.23 1013.19 1014.17 1015.17 1016.18 1017.19 1018.19 1019.14 1020.03 1020.85 1021.59 1022.25 1022.84 1023.38 1023.86 1024.29 1024.67 1025.01 1025.27 1025.47 1025.59 1025.63 1025.58 1025.46 1025.27 1025.03 1024.74
997.29 997.55 998.00 998.65 999.48 1000.48 1001.60 1002.80 1004.05 1005.31 1006.54 1007.71 1008.83 1009.88 1010.89 1011.87 1012.84 1013.81 1014.79 1015.80 1016.81 1017.81 1018.79 1019.73 1020.61 1021.43 1022.16 1022.82 1023.42 1023.94 1024.42 1024.83 1025.20 1025.50 1025.73 1025.89 1025.96 1025.94 1025.83 1025.64 1025.39 1025.08 1024.73
998.77 998.97 999.35 999.92 1000.67 1001.58 1002.60 1003.72 1004.89 1006.08 1007.25 1008.39 1009.49 1010.54 1011.56 1012.55 1013.54 1014.52 1015.51 1016.51 1017.51 1018.49 1019.45 1020.36 1021.21 1022.00 1022.71 1023.35 1023.93 1024.44 1024.90 1025.31 1025.65 1025.93 1026.13 1026.26 1026.29 1026.22 1026.07 1025.83 1025.52 1025.15 1024.73
1000.22 1000.37 1000.69 1001.19 1001.86 1002.68 1003.63 1004.67 1005.78 1006.91 1008.05 1009.17 1010.27 1011.32 1012.35 1013.36 1014.35 1015.35 1016.33 1017.31 1018.28 1019.23 1020.14 1021.00 1021.80 1022.55 1023.22 1023.83 1024.37 1024.87 1025.31 1025.69 1026.02 1026.28 1026.47 1026.57 1026.58 1026.49 1026.30 1026.03 1025.67 1025.25 1024.77
1001.63 1001.75 1002.03 1002.47 1003.09 1003.85 1004.74 1005.73 1006.78 1007.88 1008.99 1010.10 1011.19 1012.25 1013.29 1014.30 1015.30 1016.28 1017.24 1018.19 1019.11 1020.00 1020.84 1021.64 1022.38 1023.06 1023.68 1024.24 1024.75 1025.21 1025.63 1025.99 1026.31 1026.55 1026.73 1026.82 1026.82 1026.72 1026.51 1026.22 1025.83 1025.37 1024.85
1003.04 1003.13 1003.39 1003.80 1004.38 1005.11 1005.95 1006.91 1007.93 1009.00 1010.10 1011.19 1012.27 1013.33 1014.36 1015.36 1016.34 1017.29 1018.21 1019.10 1019.96 1020.77 1021.54 1022.26 1022.92 1023.53 1024.09 1024.59 1025.06 1025.49 1025.88 1026.22 1026.52 1026.76 1026.93 1027.02 1027.01 1026.90 1026.69 1026.38 1025.98 1025.49 1024.94
1004.42 1004.53 1004.78 1005.19 1005.75 1006.46 1007.29 1008.22 1009.22 1010.27 1011.34 1012.42 1013.48 1014.52 1015.52 1016.50 1017.43 1018.33 1019.19 1020.01 1020.79 1021.52 1022.20 1022.83 1023.42 1023.95 1024.45 1024.91 1025.33 1025.72 1026.08 1026.40 1026.68 1026.91 1027.07 1027.15 1027.13 1027.02 1026.81 1026.49 1026.08 1025.58 1025.00
1005.77 1005.91 1006.18 1006.61 1007.18 1007.89 1008.71 1009.62 1010.61 1011.63 1012.67 1013.72 1014.75 1015.75 1016.71 1017.63 1018.51 1019.34 1020.13 1020.87 1021.56 1022.21 1022.81 1023.36 1023.87 1024.34 1024.78 1025.18 1025.56 1025.91 1026.24 1026.54 1026.80 1027.00 1027.14 1027.21 1027.18 1027.06 1026.84 1026.51 1026.10 1025.59 1025.00
1007.07 1007.25 1007.57 1008.03 1008.63 1009.34 1010.16 1011.06 1012.02 1013.01 1014.02 1015.02 1016.00 1016.94 1017.85 1018.71 1019.51 1020.27 1020.99 1021.65 1022.26 1022.82 1023.35 1023.83 1024.27 1024.68 1025.07 1025.43 1025.77 1026.09 1026.38 1026.65 1026.87 1027.05 1027.16 1027.19 1027.15 1027.01 1026.77 1026.43 1026.01 1025.50 1024.91
1008.29 1008.54 1008.91 1009.41 1010.03 1010.76 1011.57 1012.45 1013.38 1014.33 1015.28 1016.23 1017.15 1018.03 1018.87 1019.66 1020.40 1021.08 1021.72 1022.31 1022.85 1023.35 1023.80 1024.22 1024.61 1024.98 1025.32 1025.64 1025.95 1026.23 1026.49 1026.72 1026.91 1027.04 1027.12 1027.11 1027.03 1026.86 1026.60 1026.25 1025.81 1025.31 1024.73
1009.43 1009.74 1010.17 1010.71 1011.35 1012.08 1012.88 1013.73 1014.61 1015.51 1016.41 1017.29 1018.14 1018.96 1019.73 1020.46 1021.13 1021.75 1022.33 1022.85 1023.34 1023.78 1024.18 1024.55 1024.90 1025.22 1025.53 1025.82 1026.09 1026.34 1026.56 1026.75 1026.89 1026.99 1027.02 1026.97 1026.85 1026.64 1026.35 1025.99 1025.55 1025.05 1024.50
1010.50 1010.87 1011.35 1011.92 1012.57 1013.28 1014.05 1014.86 1015.69 1016.53 1017.36 1018.17 1018.96 1019.71 1020.43 1021.10 1021.72 1022.29 1022.82 1023.29 1023.73 1024.12 1024.48 1024.81 1025.12 1025.41 1025.68 1025.94 1026.18 1026.39 1026.58 1026.73 1026.84 1026.89 1026.87 1026.79 1026.63 1026.39 1026.08 1025.71 1025.27 1024.79 1024.27
1011.53 1011.95 1012.46 1013.03 1013.67 1014.36 1015.08 1015.83 1016.60 1017.37 1018.13 1018.88 1019.61 1020.31 1020.97 1021.60 1022.18 1022.71 1023.20 1023.64 1024.04 1024.39 1024.72 1025.01 1025.29 1025.54 1025.78 1026.00 1026.21 1026.39 1026.55 1026.67 1026.74 1026.75 1026.70 1026.59 1026.40 1026.15 1025.83 1025.45 1025.03 1024.58 1024.10
Thickness
5488 5486 5486 5486 5486 5485 5484 5483 5481 5480 5478 5477 5476 5475 5473 5472 5472 5471 5471 5470 5469 5468 5468 5467 5467 5467 5466 5466 5465 5465 5464 5463 5463 5464 5465 5465 5465 5465 5466 5467 5468 5468 5469
5477 5476 5475 5475 5473 5473 5472 5471 5470 5468 5467 5466 5465 5463 5462 5461 5461 5460 5459 5459 5458 5457 5457 5456 5456 5456 5455 5454 5454 5453 5453 5452 5451 5451 5452 5453 5453 5454 5455 5455 5456 5457 5457
5467 5466 5465 5463 5462 5461 5460 5459 5457 5457 5455 5454 5453 5452 5451 5450 5450 5449 5449 5448 5448 5447 5446 5446 5446 5445 5444 5443 5443 5442 5442 5442 5441 5440 5440 5441 5442 5443 5443 5444 5444 5445 5445
5458 5455 5454 5452 5451 5450 5448 5447 5445 5444 5443 5442 5442 5441 5441 5440 5439 5439 5438 5437 5437 5436 5436 5436 5436 5435 5434 5433 5432 5432 5431 5431 5430 5430 5430 5430 5431 5432 5432 5432 5432 5433 5433
5448 5445 5444 5442 5441 5439 5437 5435 5433 5432 5432 5431 5430 5430 5430 5429 5429 5428 5428 5427 5426 5426 5426 5425 5425 5425 5424 5424 5423 5422 5422 5421 5420 5420 5420 5420 5420 5420 5420 5420 5420 5421 5422
5439 5436 5434 5432 5431 5429 5426 5424 5423 5422 5421 5420 5419 5419 5418 5419 5419 5418 5418 5417 5417 5416 5416 5415 5415 5415 5415 5415 5415 5414 5413 5412 5411 5411 5410 5410 5411 5410 5410 5410 5409 5409 5410
5429 5427 5425 5424 5422 5420 5418 5415 5413 5412 5411 5410 5409 5409 5408 5409 5409 5409 5408 5408 5408 5407 5406 5406 5406 5407 5406 5406 5405 5405 5404 5404 5404 5402 5402 5401 5401 5401 5400 5399 5399 5398 5399
5420 5418 5416 5415 5413 5410 5408 5406 5404 5403 5401 5400 5400 5400 5399 5400 5400 5400 5400 5398 5398 5398 5397 5397 5397 5397 5397 5396 5396 5395 5395 5395 5395 5395 5395 5394 5393 5392 5391 5391 5390 5390 5390
5411 5409 5408 5406 5404 5401 5399 5397 5395 5394 5393 5392 5392 5392 5391 5391 5392 5392 5391 5390 5390 5389 5389 5388 5388 5388 5389 5389 5388 5387 5387 5387 5387 5387 5387 5386 5386 5385 5383 5382 5381 5380 5381
5403 5401 5399 5397 5395 5393 5391 5390 5388 5387 5386 5385 5384 5384 5383 5383 5384 5384 5383 5382 5381 5381 5381 5381 5381 5381 5381 5381 5380 5379 5378 5379 5378 5379 5379 5378 5377 5377 5376 5375 5373 5372 5372
5394 5392 5391 5389 5387 5386 5384 5382 5381 5379 5378 5377 5377 5376 5376 5376 5376 5377 5376 5375 5374 5374 5374 5374 5374 5374 5375 5375 5374 5372 5372 5371 5370 5370 5370 5370 5369 5369 5369 5368 5367 5366 5365
5386 5384 5383 5381 5380 5379 5376 5374 5373 5372 5370 5369 5369 5369 5369 5369 5369 5369 5369 5369 5368 5367 5367 5367 5367 5367 5368 5368 5367 5366 5365 5364 5363 5362 5362 5362 5362 5362 5362 5362 5362 5361 5361
5378 5376 5375 5374 5372 5371 5369 5367 5366 5364 5363 5363 5362 5361 5361 5362 5362 5363 5362 5362 5361 5360 5360 5360 5360 5361 5361 5360 5360 5359 5358 5356 5355 5355 5355 5355 5356 5356 5356 5356 5356 5356 5355
5370 5368 5367 5366 5364 5363 5361 5360 5358 5357 5356 5355 5355 5355 5354 5354 5354 5354 5354 5354 5354 5354 5353 5353 5354 5354 5354 5354 5353 5352 5351 5350 5350 5349 5349 5349 5349 5350 5350 5350 5350 5349 5348
5363 5361 5360 5359 5357 5355 5354 5352 5351 5351 5349 5349 5348 5348 5348 5347 5348 5348 5347 5348 5348 5347 5347 5346 5345 5345 5345 5346 5346 5345 5345 5344 5344 5344 5344 5343 5343 5344 5344 5344 5343 5342 5341
5356 5354 5352 5350 5349 5348 5346 5345 5344 5344 5344 5343 5343 5342 5342 5343 5342 5342 5342 5343 5343 5342 5341 5340 5340 5339 5339 5340 5340 5340 5339 5339 5339 5339 5338 5338 5338 5338 5338 5337 5337 5336 5335
5348 5346 5344 5343 5342 5340 5339 5338 5337 5337 5337 5337 5337 5337 5337 5337 5337 5337 5337 5337 5337 5337 5335 5334 5334 5333 5333 5334 5334 5334 5334 5334 5334 5334 5333 5333 5333 5333 5332 5331 5331 5330 5329
5341 5340 5338 5336 5334 5333 5332 5330 5330 5329 5329 5329 5330 5331 5331 5331 5331 5331 5332 5332 5331 5331 5330 5329 5329 5329 5329 5329 5329 5329 5329 5329 5329 5329 5329 5328 5328 5328 5327 5326 5325 5324 5324
5334 5332 5331 5329 5328 5327 5326 5324 5323 5323 5322 5323 5324 5325 5326 5326 5326 5326 5326 5325 5325 5325 5324 5324 5324 5324 5325 5325 5325 5325 5324 5324 5324 5324 5324 5324 5323 5323 5322 5321 5321 5320 5320
5327 5327 5326 5324 5322 5321 5320 5319 5318 5317 5317 5317 5318 5318 5319 5319 5320 5320 5320 5320 5320 5320 5320 5320 5320 5320 5321 5321 5321 5321 5321 5321 5320 5320 5320 5320 5319 5319 5318 5318 5317 5317 5317
5321 5321 5321 5318 5317 5316 5315 5314 5313 5312 5312 5312 5312 5313 5314 5314 5314 5314 5315 5315 5315 5315 5315 5316 5317 5317 5318 5318 5317 5317 5317 5317 5317 5317 5316 5316 5316 5316 5315 5315 5315 5315 5314
5316 5315 5314 5313 5312 5311 5310 5309 5308 5308 5308 5308 5308 5309 5310 5309 5309 5310 5311 5311 5311 5312 5312 5313 5314 5314 5315 5315 5315 5315 5315 5315 5314 5314 5314 5314 5314 5314 5313 5313 5313 5313 5313
5311 5310 5309 5308 5307 5307 5306 5305 5304 5304 5304 5304 5304 5304 5305 5305 5306 5306 5307 5307 5308 5309 5310 5310 5311 5312 5312 5313 5313 5313 5313 5313 5313 5312 5312 5312 5311 5311 5311 5311 5311 5311 5312
5305 5304 5304 5304 5304 5303 5302 5301 5301 5300 5300 5300 5301 5301 5301 5302 5302 5303 5304 5304 5305 5306 5307 5308 5309 5310 5310 5311 5311 5312 5312 5311 5311 5311 5311 5310 5310 5310 5310 5310 5310 5310 5311
5300 5300 5300 5300 5300 5299 5299 5298 5298 5298 5298 5298 5298 5298 5298 5299 5299 5300 5301 5301 5302 5304 5305 5306 5307 5308 5309 5309 5310 5310 5310 5310 5310 5310 5310 5309 5309 5309 5309 5309 5309 5309 5309
5296 5297 5297 5297 5297 5296 5296 5295 5295 5295 5295 5296 5296 5296 5296 5297 5297 5298 5298 5299 5300 5301 5303 5304 5305 5306 5307 5307 5308 5308 5309 5309 5309 5309 5309 5309 5309 5308 5308 5308 5308 5308 5309